Date,TemperatureHighF,TemperatureAvgF,TemperatureLowF,DewpointHighF,DewpointAvgF,DewpointLowF,HumidityHigh,HumidityAvg,HumidityLow,PressureMaxIn,PressureMinIn,WindSpeedMaxMPH,WindSpeedAvgMPH,GustSpeedMaxMPH,PrecipitationSumIn
2013-1-1,25.8,19.8,12.6,17.3,14.7,8.9,88,80,69,30.46,30.32,12,2,12,0.00
2013-1-2,24.2,18.5,12.3,15.3,12.2,7.8,82,76,68,30.46,30.37,17,3,17,0.00
2013-1-3,32.3,19.5,11.6,16.5,10.7,6.6,82,69,50,30.37,30.20,14,3,14,0.00
2013-1-4,30.5,21.8,14.3,15.6,11.9,8.7,80,66,52,30.37,30.30,12,2,12,0.00
2013-1-5,30.1,20.9,10.1,15.4,11.1,5.7,84,67,50,30.33,30.15,11,2,11,0.00
2013-1-6,35.4,26.2,18.9,19.8,15.9,13.0,82,65,52,30.18,30.08,11,2,11,0.00
2013-1-7,30.0,25.3,19.0,27.5,21.7,14.4,93,86,70,30.11,30.01,9,2,9,0.00
2013-1-8,43.4,30.9,23.4,36.6,28.7,20.4,97,92,74,30.16,30.00,14,2,14,0.00
2013-1-9,47.9,40.6,29.8,36.6,33.3,27.8,96,76,60,30.00,29.71,26,7,26,0.00
2013-1-10,30.1,27.7,24.8,27.5,23.7,21.4,92,85,74,29.87,29.81,0,0,0,0.00
2013-1-11,26.6,20.8,12.5,23.2,14.8,6.7,90,77,69,30.16,29.86,11,2,11,0.00
2013-1-12,17.8,12.9,4.2,13.4,8.2,-0.3,87,81,76,30.23,30.15,5,1,5,0.00
2013-1-13,21.5,16.3,12.6,14.9,11.5,6.8,89,81,72,30.32,30.22,8,1,8,0.00
2013-1-14,23.7,16.7,11.6,17.2,12.3,8.0,86,83,75,30.42,30.27,4,1,4,0.00
2013-1-15,25.6,15.7,9.7,16.8,10.8,6.0,88,81,69,30.57,30.42,4,1,4,0.00
2013-1-16,26.0,15.9,10.1,17.6,10.9,6.0,88,80,67,30.60,30.54,11,2,11,0.00
2013-1-17,27.5,17.3,9.4,16.9,10.9,5.3,85,76,63,30.58,30.42,12,2,12,0.00
2013-1-18,28.9,18.7,12.0,18.6,12.5,8.0,85,77,64,30.44,30.33,9,2,9,0.00
2013-1-19,29.5,17.2,9.6,18.4,11.2,5.5,85,77,62,30.47,30.38,5,2,5,0.00
2013-1-20,30.7,18.4,11.2,18.6,12.1,7.0,85,77,59,30.48,30.39,6,1,6,0.00
2013-1-21,30.6,16.6,8.0,18.1,10.4,3.6,86,77,59,30.39,30.26,7,2,7,0.00
2013-1-22,35.5,22.4,10.4,21.5,14.1,5.9,84,71,53,30.29,30.13,10,2,10,0.00
2013-1-23,43.3,31.8,21.8,29.8,20.5,14.1,74,63,49,30.14,29.95,17,4,17,0.00
2013-1-24,41.6,34.7,27.0,34.4,28.6,22.8,90,78,65,30.20,30.09,10,2,10,0.00
2013-1-25,41.6,37.7,34.8,39.2,36.4,32.9,99,95,86,30.14,29.92,10,2,10,0.00
2013-1-26,41.6,35.6,29.3,39.5,32.8,27.4,99,90,65,29.96,29.86,14,2,14,0.00
2013-1-27,36.9,31.5,29.0,30.4,28.1,25.4,96,87,70,30.00,29.94,6,1,6,0.00
2013-1-28,35.0,31.3,28.6,31.7,29.1,25.8,98,92,75,29.98,29.89,4,1,4,0.00
2013-1-29,38.6,34.3,31.3,35.6,33.3,31.1,100,96,89,30.22,29.89,6,1,6,0.00
2013-1-30,43.7,39.8,37.1,39.0,36.0,33.6,98,87,77,30.28,30.20,12,2,12,0.00
2013-1-31,50.0,40.8,37.4,41.1,37.5,35.4,97,88,67,30.29,30.21,5,1,5,0.00
2013-2-1,49.4,39.0,28.2,37.0,33.3,26.1,93,81,56,30.39,30.22,6,1,6,0.00
2013-2-2,42.8,31.5,23.5,35.1,28.3,22.0,96,88,74,30.42,30.25,4,1,4,0.00
2013-2-3,42.0,34.4,27.2,33.4,29.6,24.2,93,83,71,30.25,30.14,15,3,15,0.00
2013-2-4,42.1,35.3,30.7,34.1,31.1,28.4,92,85,73,30.15,29.98,12,1,12,0.00
2013-2-5,44.2,36.6,30.5,36.0,31.8,28.2,92,83,72,29.98,29.85,9,2,9,0.00
2013-2-6,46.7,39.8,32.4,32.9,27.9,22.1,87,64,42,30.09,29.92,23,4,23,0.00
2013-2-7,43.2,35.8,28.0,34.4,29.8,26.2,98,81,52,30.01,29.88,25,4,25,0.00
2013-2-8,37.9,30.6,25.4,31.2,27.5,22.1,97,88,73,30.04,29.99,12,3,12,0.00
2013-2-9,41.5,34.7,28.6,29.5,27.1,24.6,88,74,57,30.09,30.00,15,5,15,0.00
2013-2-10,42.0,32.4,24.7,30.7,26.1,21.0,87,78,60,30.19,30.09,8,2,8,0.00
2013-2-11,46.3,32.5,20.8,32.5,26.4,18.1,91,79,52,30.21,30.13,5,1,5,0.00
2013-2-12,46.0,39.7,34.6,35.9,33.1,30.9,88,78,59,30.31,30.21,7,1,7,0.00
2013-2-13,47.9,41.6,37.4,35.1,33.3,30.4,87,73,56,30.35,30.25,12,2,12,0.00
2013-2-14,47.5,39.8,30.6,34.7,31.7,27.5,90,73,57,30.45,30.35,6,1,6,0.00
2013-2-15,52.0,40.6,28.2,39.0,33.7,26.2,94,77,59,30.46,30.29,14,2,14,0.00
2013-2-22,40.1,36.6,31.7,34.9,32.6,29.0,96,86,67,30.29,30.08,24,4,24,0.00
2013-2-23,35.1,31.5,29.0,32.0,28.0,23.8,96,87,77,30.55,30.18,10,2,10,0.00
2013-2-24,41.4,34.4,28.7,28.4,25.6,21.5,93,71,50,30.61,30.37,15,2,15,0.00
2013-2-25,40.6,35.9,31.7,31.9,26.7,21.2,92,70,49,30.50,30.27,17,4,17,0.00
2013-2-26,41.8,34.0,28.0,25.1,23.3,21.1,83,66,45,30.60,30.50,11,2,11,0.00
2013-2-27,46.3,37.9,27.7,26.8,23.9,20.8,76,58,44,30.60,30.53,16,4,16,0.00
2013-2-28,40.9,37.4,35.1,37.9,34.3,26.9,100,89,63,30.72,30.54,12,2,12,0.00
2013-3-1,51.9,40.7,34.3,45.3,38.5,33.8,100,93,75,30.75,30.64,11,2,11,0.00
2013-3-2,54.2,44.8,34.8,42.3,39.4,33.3,96,83,61,30.64,30.34,22,3,22,0.00
2013-3-3,43.0,35.2,26.0,40.4,25.4,17.3,94,69,40,30.47,30.32,14,4,14,0.00
2013-3-4,44.9,32.4,19.1,29.6,18.9,11.7,96,63,32,30.55,30.34,27,4,27,0.00
2013-3-5,47.4,42.5,37.3,29.3,21.2,13.1,69,43,34,30.34,30.05,27,7,27,0.00
2013-3-6,51.5,41.2,33.4,37.8,32.3,27.7,94,72,48,30.23,29.89,19,4,19,0.00
2013-3-7,48.9,36.1,26.4,32.0,25.3,21.1,90,68,35,30.34,30.23,15,2,15,0.00
2013-3-8,51.9,33.7,21.2,33.2,25.5,17.4,87,73,36,30.40,30.22,17,3,17,0.00
2013-3-9,51.5,35.9,22.5,33.0,24.3,18.8,90,66,34,30.69,30.40,14,3,14,0.00
2013-3-10,53.7,38.6,22.9,40.5,26.1,17.4,96,65,25,30.72,30.57,10,1,10,0.00
2013-3-11,49.6,43.4,39.6,40.9,38.6,34.5,98,84,58,30.61,30.52,6,1,6,0.00
2013-3-12,60.8,48.9,39.0,42.9,40.0,36.4,94,73,48,30.53,30.40,17,3,17,0.00
2013-3-13,65.2,50.4,40.5,44.6,38.1,34.3,83,65,35,30.46,30.26,10,2,10,0.00
2013-3-14,65.7,51.1,37.4,42.6,37.5,32.7,85,62,37,30.31,30.18,16,3,16,0.00
2013-3-15,58.2,49.1,40.6,41.9,38.1,34.6,85,67,44,30.33,30.24,12,2,12,0.00
2013-3-16,53.3,43.2,33.1,39.1,35.4,30.8,92,75,46,30.25,29.97,12,2,12,0.00
2013-3-17,41.1,35.2,31.9,30.2,23.5,19.7,87,63,42,30.25,30.07,14,4,14,0.00
2013-3-18,48.4,37.1,30.0,26.7,24.1,20.9,82,61,34,30.30,30.20,17,3,17,0.00
2013-3-19,53.6,39.9,21.7,29.2,19.3,14.6,80,49,22,30.33,29.94,21,5,21,0.00
2013-3-20,57.6,45.6,34.2,42.9,37.0,27.6,93,73,40,30.10,29.76,27,8,27,0.00
2013-3-21,38.2,33.1,30.0,30.1,24.4,19.6,92,70,58,30.35,30.10,19,5,19,0.00
2013-3-22,37.3,31.0,26.7,26.3,23.5,21.0,89,74,54,30.48,30.31,13,3,13,0.00
2013-3-23,41.9,31.6,23.9,25.9,20.9,15.8,87,67,36,30.54,30.44,9,2,9,0.00
2013-3-24,47.8,33.0,18.8,25.9,20.2,14.5,85,62,31,30.51,30.36,10,2,10,0.00
2013-3-25,52.3,43.0,29.8,29.1,23.3,17.0,77,48,32,30.37,30.20,15,4,15,0.00
2013-3-26,59.0,46.5,36.6,40.4,35.1,28.2,82,66,44,30.23,30.16,9,2,9,0.00
2013-3-27,58.5,44.9,34.9,46.2,38.1,31.4,91,78,50,30.25,30.18,12,2,12,0.00
2013-3-28,60.1,46.9,36.7,47.1,42.3,35.1,97,85,55,30.37,30.24,11,2,11,0.00
2013-3-29,60.3,48.6,42.0,47.8,43.8,38.4,100,85,52,30.47,30.36,6,1,6,0.00
2013-3-30,65.3,47.3,32.0,45.5,35.8,29.3,94,69,27,30.52,30.36,5,2,5,0.00
2013-3-31,69.2,48.3,29.9,44.5,36.7,27.3,92,68,34,30.37,30.15,4,1,4,0.00
2013-4-1,68.6,50.4,33.9,46.4,39.6,30.8,89,69,39,30.31,30.18,13,2,13,0.00
2013-4-2,64.3,50.7,39.3,43.9,40.2,36.0,89,70,43,30.40,30.31,8,2,8,0.00
2013-4-3,66.3,51.7,37.9,46.2,40.5,35.5,93,68,43,30.41,30.26,7,2,7,0.00
2013-4-4,63.5,50.4,38.6,46.1,42.1,35.9,94,75,45,30.26,30.02,23,4,23,0.00
2013-4-5,57.4,49.2,43.4,45.8,43.2,39.5,97,81,53,30.22,30.15,9,2,9,0.00
2013-4-6,52.2,45.4,40.8,44.4,41.8,38.9,99,88,65,30.24,30.12,12,2,12,0.00
2013-4-7,55.4,42.6,33.9,43.8,36.8,31.4,100,81,45,30.12,29.91,28,5,28,0.00
2013-4-8,46.5,38.8,32.8,36.6,33.0,30.3,97,80,64,30.39,30.06,14,4,14,0.00
2013-4-9,55.3,42.1,28.3,38.5,33.0,26.3,94,72,45,30.49,30.40,13,4,18,0.00
2013-4-10,57.3,45.2,35.3,48.5,38.2,31.2,90,77,58,30.48,29.97,16,3,21,0.00
2013-4-11,49.3,41.8,31.3,35.0,31.8,27.3,85,69,52,30.15,30.06,11,2,14,0.00
2013-4-12,60.1,43.6,26.4,42.1,31.5,23.8,92,68,31,30.08,29.68,16,3,23,0.00
2013-4-13,46.2,39.3,31.0,40.6,29.0,22.4,93,68,41,29.92,29.69,25,6,27,0.00
2013-4-14,45.8,37.2,29.2,31.5,27.2,24.0,86,68,45,29.93,29.79,10,3,17,0.00
2013-4-15,44.5,34.4,24.6,35.6,28.4,21.0,90,79,55,29.94,29.80,18,5,23,0.00
2013-4-16,44.0,35.1,26.7,28.6,24.7,21.4,85,67,47,30.21,29.95,18,6,25,0.00
2013-4-17,50.8,36.0,20.4,26.3,18.8,11.6,85,54,25,30.31,30.20,15,4,19,0.00
2013-4-18,53.7,43.5,32.0,42.2,31.7,18.4,87,64,50,30.34,30.20,7,1,9,0.00
2013-4-19,48.7,45.7,43.6,45.3,43.5,40.7,99,92,84,30.20,30.01,13,2,19,0.00
2013-4-20,54.0,45.8,38.1,41.3,38.3,33.9,88,75,57,30.18,30.08,11,3,19,0.00
2013-4-21,54.5,45.0,35.0,41.8,36.7,32.5,92,74,54,30.16,30.03,15,3,25,0.00
2013-4-22,51.5,41.5,30.0,36.1,30.0,22.5,93,67,35,30.33,30.16,18,4,20,0.00
2013-4-23,55.3,39.9,22.3,30.2,23.2,17.1,82,55,25,30.32,30.11,12,2,16,0.00
2013-4-24,65.2,45.4,26.3,36.4,27.9,20.9,82,54,26,30.28,30.00,9,2,13,0.00
2013-4-25,68.7,52.0,34.2,40.0,33.3,27.2,77,52,31,30.08,29.96,13,3,16,0.00
2013-4-26,74.1,56.4,38.4,47.2,40.1,34.5,88,58,30,30.20,30.08,10,2,12,0.00
2013-4-27,73.3,57.1,43.6,45.8,37.3,32.0,76,50,25,30.20,30.06,14,3,18,0.00
2013-4-28,62.9,52.1,43.4,45.8,39.4,34.6,82,63,38,30.13,29.97,13,2,20,0.00
2013-4-29,53.7,49.0,39.5,47.1,34.1,20.0,88,58,30,29.99,29.88,20,5,26,0.00
2013-4-30,46.2,38.1,29.0,29.7,25.0,21.4,73,60,39,30.30,29.99,15,4,19,0.00
2013-5-1,58.5,41.8,24.7,31.3,24.8,18.9,83,55,25,30.51,30.30,7,2,12,0.00
2013-5-2,69.8,50.2,27.7,36.8,27.4,22.6,82,48,19,30.52,30.23,14,3,21,0.00
2013-5-3,67.6,55.1,40.3,42.5,36.5,26.7,72,51,31,30.23,30.13,15,4,22,0.00
2013-5-4,69.0,56.8,40.1,41.9,37.2,32.4,84,51,31,30.13,29.94,20,4,28,0.00
2013-5-5,74.4,55.5,37.0,47.4,39.0,31.2,82,57,30,29.96,29.81,11,2,12,0.00
2013-5-6,80.2,60.5,39.6,51.1,43.6,35.5,88,58,25,29.90,29.74,12,3,18,0.00
2013-5-7,81.8,63.5,45.6,53.1,42.5,34.2,83,51,23,29.92,29.78,12,2,20,0.00
2013-5-8,82.6,64.2,45.2,52.4,46.6,39.9,88,56,28,30.03,29.91,12,3,18,0.00
2013-5-9,84.8,64.5,46.2,57.5,47.8,41.8,87,58,27,30.12,30.02,11,2,17,0.00
2013-5-10,86.2,66.3,44.8,55.4,44.6,32.5,85,51,15,30.22,30.09,7,2,11,0.00
2013-5-11,85.6,69.3,53.9,60.5,48.9,42.0,72,50,28,30.18,30.03,6,2,12,0.00
2013-5-12,83.3,66.1,52.6,62.3,53.9,47.1,88,67,37,30.09,29.97,11,2,19,0.00
2013-5-13,75.0,58.5,48.2,59.6,50.4,43.6,92,75,55,30.15,29.90,17,2,22,0.00
2013-5-14,67.7,52.3,37.7,44.5,39.7,30.5,92,66,34,30.16,30.00,8,2,13,0.00
2013-5-15,69.5,51.7,35.3,45.3,39.0,32.9,92,66,30,30.07,29.90,13,2,18,0.00
2013-5-16,66.3,55.2,45.8,46.1,44.2,41.6,89,69,42,29.98,29.83,8,2,14,0.00
2013-5-17,58.6,50.7,44.4,48.2,45.3,40.8,97,82,66,30.02,29.86,14,2,19,0.00
2013-5-18,61.1,50.2,38.9,47.0,42.4,36.9,98,77,42,30.17,30.02,13,2,18,0.00
2013-5-19,59.9,50.5,42.6,46.3,42.9,38.6,95,76,57,30.26,30.17,9,2,13,0.00
2013-5-20,74.0,54.6,35.3,49.9,42.5,34.2,99,68,36,30.27,29.89,6,2,9,0.00
2013-5-21,70.3,51.5,40.7,45.7,41.0,36.5,96,71,32,29.89,29.61,25,4,39,0.00
2013-5-22,48.2,40.4,32.5,37.5,33.6,29.2,94,78,54,29.96,29.85,11,2,22,0.00
2013-5-23,59.5,42.8,28.0,42.0,34.1,26.5,97,74,35,30.00,29.92,10,2,17,0.00
2013-5-24,54.0,43.7,36.0,44.4,39.2,32.3,96,85,61,30.03,29.93,9,1,13,0.00
2013-5-25,64.9,49.3,34.1,47.9,40.4,32.6,98,75,41,30.03,29.93,6,2,10,0.00
2013-5-26,58.9,50.3,39.2,50.9,45.1,37.3,94,83,69,30.00,29.93,9,1,13,0.00
2013-5-27,62.4,51.0,38.7,49.5,45.3,36.9,100,82,51,30.00,29.81,18,3,21,0.00
2013-5-28,60.6,51.4,43.8,49.2,45.6,39.7,100,82,54,29.90,29.80,10,2,15,0.00
2013-5-29,55.0,47.2,41.0,50.5,44.7,38.8,100,91,71,29.97,29.71,11,2,21,0.00
2013-5-30,59.1,49.8,41.3,45.3,41.5,36.2,98,75,52,30.15,29.98,9,2,13,0.00
2013-5-31,67.3,52.2,37.5,45.4,39.0,33.3,89,64,29,30.26,30.15,8,2,10,0.00
2013-6-1,74.5,57.1,38.1,52.3,44.2,35.3,92,65,38,30.22,29.99,9,2,13,0.00
2013-6-2,66.6,57.0,45.5,48.7,44.7,42.3,89,65,44,30.00,29.93,10,3,16,0.00
2013-6-3,72.3,57.8,44.2,48.5,43.9,39.5,87,63,36,30.06,29.98,12,2,12,0.00
2013-6-4,76.3,59.4,40.7,52.9,45.5,37.9,91,64,31,30.12,30.03,10,3,10,0.00
2013-6-5,82.0,64.3,44.9,55.9,48.1,41.9,92,60,29,30.11,29.99,6,1,6,0.00
2013-6-6,81.0,60.5,51.2,57.4,49.9,45.1,86,70,39,30.06,29.99,5,1,5,0.00
2013-6-11,69.1,61.5,50.6,47.4,42.7,38.5,65,51,42,30.17,30.06,8,3,8,0.00
2013-6-12,66.5,54.0,41.6,45.6,40.2,36.4,83,61,39,30.19,29.92,9,2,9,0.00
2013-6-13,64.6,52.5,39.4,43.2,39.2,34.1,83,62,39,30.09,29.99,12,3,12,0.00
2013-6-14,71.4,57.6,47.0,45.7,41.4,37.1,87,58,31,30.14,29.97,9,2,9,0.00
2013-6-15,81.3,62.0,39.3,50.4,41.3,34.9,87,52,22,29.99,29.85,7,2,7,0.00
2013-6-16,86.5,66.4,50.1,53.6,47.4,41.4,77,53,27,29.97,29.85,8,2,8,0.00
2013-6-17,84.1,67.5,51.2,54.6,48.9,43.9,77,53,32,30.00,29.76,10,3,10,0.00
2013-6-18,68.1,57.2,50.4,55.5,50.2,47.0,93,78,62,29.88,29.78,16,2,16,0.00
2013-6-19,51.1,45.6,39.8,48.3,44.6,38.8,100,96,87,29.93,29.75,11,2,11,0.00
2013-6-20,62.8,52.3,45.4,47.6,45.0,41.3,100,78,48,30.00,29.91,13,2,13,0.00
2013-6-21,59.8,51.1,44.3,49.1,45.7,40.8,96,82,61,30.05,29.99,7,2,7,0.00
2013-6-22,70.9,57.4,41.8,52.8,46.9,40.2,96,71,43,30.03,29.87,5,2,5,0.00
2013-6-23,71.6,59.4,44.8,59.9,52.3,43.0,96,78,58,29.87,29.60,6,1,6,0.00
2013-6-24,64.5,56.8,49.3,58.5,55.1,49.3,100,95,74,29.73,29.61,9,1,9,0.00
2013-6-25,66.0,57.5,48.7,57.8,53.2,48.7,100,87,65,29.85,29.73,15,2,15,0.00
2013-6-26,71.0,61.1,54.7,61.6,58.0,54.1,100,91,65,30.07,29.86,12,2,12,0.00
2013-6-27,84.3,66.3,50.6,70.2,61.3,50.6,100,86,59,30.12,30.05,8,2,8,0.00
2013-6-28,90.7,72.7,56.9,73.0,64.6,56.5,100,78,48,30.16,29.97,7,2,7,0.00
2013-6-29,88.2,75.7,65.0,72.1,65.9,61.0,91,73,55,30.05,29.90,12,2,12,0.00
2013-6-30,94.0,75.6,58.9,73.6,65.8,57.9,98,74,45,30.02,29.87,6,1,6,0.00
2013-7-1,98.5,80.0,62.5,76.6,67.5,57.9,86,68,39,29.96,29.86,6,2,6,0.00
2013-7-2,97.5,81.4,68.9,73.0,65.6,57.5,85,61,31,30.01,29.91,8,2,8,0.00
2013-7-3,89.3,77.5,65.8,62.6,57.5,51.4,68,52,34,30.03,29.90,7,2,8,0.00
2013-7-4,82.7,69.5,54.7,52.5,46.3,37.1,64,46,25,29.96,29.84,7,3,7,0.00
2013-7-5,79.5,65.0,50.6,51.4,46.9,40.8,81,54,31,29.88,29.80,9,2,9,0.00
2013-7-6,83.7,62.9,44.2,55.6,46.6,37.3,82,58,27,29.89,29.76,8,2,8,0.00
2013-7-7,86.5,68.7,51.5,58.6,52.6,46.9,87,60,29,29.87,29.76,8,2,8,0.00
2013-7-8,83.2,69.5,56.2,53.9,49.5,45.3,77,52,27,30.04,29.82,8,2,8,0.00
2013-7-9,90.2,69.5,47.7,59.1,50.8,42.8,83,55,26,30.11,29.94,5,2,5,0.00
2013-7-10,89.8,72.2,53.7,58.5,51.3,44.1,81,51,31,29.97,29.81,8,2,8,0.00
2013-7-11,81.7,69.0,58.6,49.2,43.3,38.2,57,41,28,56.78,29.86,7,2,7,0.00
2013-7-12,80.6,64.7,49.5,46.9,39.1,28.4,65,41,27,56.85,40.00,11,2,11,0.00
2013-7-13,80.2,62.3,44.2,46.9,41.7,34.9,78,50,23,56.93,40.00,8,2,8,0.00
2013-7-14,87.9,69.3,49.7,50.2,46.7,42.1,81,48,25,56.95,40.00,6,2,6,0.00
2013-7-15,87.8,69.3,50.6,52.2,47.0,41.6,73,48,25,56.86,40.00,14,3,14,0.00
2013-7-16,94.4,71.3,54.5,58.9,51.9,45.8,75,53,29,56.80,29.75,10,2,10,0.00
2013-7-17,88.6,73.9,59.7,58.8,52.1,45.9,83,51,26,30.09,29.89,11,2,11,0.00
2013-7-18,92.4,72.8,55.0,52.0,47.0,43.3,71,44,19,30.14,29.99,10,2,10,0.00
2013-7-19,94.1,73.4,53.3,53.9,49.0,44.7,78,46,22,30.07,29.93,11,3,11,0.00
2013-7-20,93.6,72.2,50.5,51.6,44.8,38.0,74,42,15,30.00,29.85,8,2,8,0.00
2013-7-21,94.3,73.5,49.4,49.3,40.8,35.3,70,35,15,29.91,29.81,11,2,11,0.00
2013-7-22,91.5,73.9,49.7,54.1,42.2,36.9,72,36,16,29.94,29.86,8,2,8,0.00
2013-7-23,95.5,73.5,50.0,50.0,42.7,37.4,68,37,16,30.01,29.87,8,2,8,0.00
2013-7-24,95.5,74.8,55.2,54.4,45.4,36.3,65,37,19,29.98,29.88,9,2,9,0.00
2013-7-25,96.4,76.0,56.3,50.3,44.3,31.8,66,35,18,30.02,29.94,11,2,11,0.00
2013-7-26,96.5,74.3,51.6,49.5,40.9,30.9,61,33,15,30.08,29.94,9,2,9,0.00
2013-7-27,86.8,73.2,59.3,51.0,41.0,31.3,57,33,18,30.02,29.86,10,3,10,0.00
2013-7-28,84.1,67.3,50.7,42.4,37.3,29.5,60,36,19,29.90,29.80,7,2,7,0.00
2013-7-29,87.4,66.7,45.6,44.4,39.3,35.0,72,40,18,29.92,29.82,5,2,5,0.00
2013-7-30,89.7,72.0,56.7,49.3,43.9,41.4,61,39,19,30.03,29.91,7,2,7,0.00
2013-7-31,86.3,69.2,52.7,51.2,45.8,41.3,65,45,26,30.03,29.90,10,2,10,0.00
2013-8-1,81.2,62.7,53.7,57.3,51.4,44.7,94,69,38,29.97,29.83,18,2,18,0.00
2013-8-2,75.6,63.0,54.5,56.0,52.6,49.7,93,71,43,30.01,29.93,8,2,8,0.00
2013-8-3,82.4,64.8,47.4,54.2,49.2,43.4,94,62,30,30.05,29.93,8,2,8,0.00
2013-8-4,88.9,69.4,49.1,53.5,48.2,43.5,90,53,24,30.02,29.86,10,2,10,0.00
2013-8-5,89.3,71.4,55.2,53.7,49.2,44.3,79,49,25,29.95,29.85,15,2,15,0.00
2013-8-6,92.1,71.9,50.4,51.9,46.7,43.0,83,45,20,29.98,29.83,8,2,8,0.00
2013-8-7,92.8,72.5,53.5,49.9,44.3,36.8,68,41,16,29.93,29.82,11,3,11,0.00
2013-8-8,92.5,73.2,58.7,53.8,48.3,40.6,61,43,22,29.92,29.79,18,4,18,0.00
2013-8-9,93.7,76.2,61.6,54.2,51.1,48.1,63,44,25,29.88,29.71,15,3,15,0.00
2013-8-10,88.7,69.3,55.2,61.2,54.6,49.3,92,63,32,29.91,29.79,11,2,11,0.00
2013-8-11,85.2,68.1,56.0,60.2,56.0,52.5,92,68,37,29.92,29.81,11,2,12,0.00
2013-8-12,85.6,69.4,56.0,60.9,55.7,50.5,89,64,37,30.00,29.82,7,2,7,0.00
2013-8-13,90.3,70.8,53.1,57.6,51.9,47.3,87,56,24,29.98,29.83,9,2,9,0.00
2013-8-14,94.6,72.7,54.1,55.5,51.1,44.2,81,51,19,29.95,29.80,15,2,15,0.00
2013-8-15,93.6,73.8,56.8,55.9,50.6,47.1,72,47,25,29.95,29.80,12,3,12,0.00
2013-8-16,90.9,71.9,57.1,57.5,54.3,50.8,81,57,29,29.98,29.86,13,2,13,0.00
2013-8-17,87.8,70.8,55.6,60.3,55.6,51.2,86,62,32,30.01,29.89,11,2,11,0.00
2013-8-18,88.8,70.6,54.1,53.8,49.3,43.3,82,52,25,30.06,29.94,7,2,7,0.00
2013-8-19,88.9,71.0,52.6,53.1,48.6,45.2,82,49,25,30.04,29.91,7,2,7,0.00
2013-8-20,86.6,68.6,53.0,52.2,47.6,44.1,79,51,25,30.02,29.91,10,2,10,0.00
2013-8-21,90.5,67.6,47.0,52.6,46.6,41.4,82,51,21,30.01,29.88,5,2,5,0.00
2013-8-22,90.8,67.5,58.1,59.6,51.5,43.5,96,61,30,30.03,29.78,12,2,12,0.00
2013-8-23,83.8,66.4,52.2,61.1,54.7,48.9,100,72,31,29.94,29.83,7,2,7,0.00
2013-8-24,85.6,66.3,52.4,59.0,51.1,46.1,81,60,35,29.90,29.76,9,2,9,0.00
2013-8-25,85.5,67.4,52.8,57.5,50.7,42.9,83,59,25,29.95,29.75,12,3,12,0.00
2013-8-26,85.7,64.8,47.7,57.4,49.4,41.0,91,63,22,29.97,29.83,18,2,18,0.00
2013-8-27,90.1,66.8,49.9,56.0,51.2,45.8,89,61,22,29.95,29.73,10,2,10,0.00
2013-8-28,92.2,72.0,52.6,56.6,48.9,40.5,83,50,17,29.88,29.78,16,3,16,0.00
2013-8-29,91.6,70.4,56.0,60.4,51.7,43.0,76,54,21,30.01,29.86,11,2,11,0.00
2013-8-30,84.1,68.1,53.4,57.3,53.4,49.7,88,62,34,30.10,29.97,7,2,7,0.00
2013-8-31,93.3,70.4,51.2,58.2,52.6,48.2,90,58,25,30.04,29.82,8,2,8,0.00
2013-9-1,91.0,71.1,52.3,56.7,49.8,44.9,78,50,22,29.88,29.77,6,2,6,0.00
2013-9-2,76.6,68.9,63.4,65.8,59.2,50.1,98,73,48,29.95,29.78,10,2,10,0.00
2013-9-3,83.5,69.5,62.2,64.9,60.5,57.6,91,75,48,29.98,29.86,17,3,17,0.00
2013-9-5,82.6,66.7,58.7,66.1,58.5,50.0,100,78,36,56.88,40.00,21,2,23,0.00
2013-9-6,70.3,61.0,53.1,56.2,53.0,50.0,99,77,55,57.00,40.00,7,1,7,0.00
2013-9-7,78.4,62.7,49.0,57.0,52.3,47.1,95,72,39,57.01,29.93,6,2,6,0.00
2013-9-8,76.0,61.9,48.2,55.8,50.8,47.0,97,70,41,30.01,29.94,12,2,12,0.00
2013-9-9,83.0,64.0,47.3,56.9,50.3,45.3,95,65,31,30.01,29.88,4,1,4,0.00
2013-9-10,86.8,65.9,48.3,55.7,50.0,44.6,88,60,30,29.99,29.87,6,2,6,0.00
2013-9-11,92.3,68.5,49.6,55.6,50.1,45.2,87,56,22,30.02,29.89,8,2,8,0.00
2013-9-12,90.0,71.8,53.5,60.9,54.7,47.9,83,57,32,29.99,29.84,9,2,9,0.00
2013-9-13,88.8,72.6,61.5,61.6,56.1,52.0,85,60,29,29.90,29.74,14,2,14,0.00
2013-9-14,88.8,69.0,52.7,59.8,54.3,49.2,89,62,32,29.86,29.75,6,1,6,0.00
2013-9-15,86.8,71.3,57.6,58.1,54.0,49.9,86,58,31,29.81,29.65,22,4,22,0.00
2013-9-16,75.8,62.6,51.4,56.2,52.1,46.7,89,70,45,29.87,29.76,9,2,9,0.00
2013-9-17,63.1,52.0,46.1,51.9,48.0,43.7,99,87,61,29.84,29.67,14,2,14,0.00
2013-9-18,62.8,52.4,43.7,46.3,44.2,38.9,91,75,49,30.03,29.84,6,1,6,0.00
2013-9-19,72.1,52.0,34.4,47.2,37.6,31.3,98,65,29,30.08,29.88,15,3,15,0.00
2013-9-20,81.4,62.6,42.6,44.8,36.9,33.9,73,43,19,29.88,29.54,22,4,22,0.00
2013-9-21,64.2,56.0,49.1,52.4,47.1,43.5,95,72,49,29.74,29.61,11,2,11,0.00
2013-9-22,65.3,53.6,45.6,49.6,46.3,41.5,98,79,43,29.78,29.65,9,1,9,0.00
2013-9-23,63.4,53.5,44.6,49.1,45.5,41.4,98,76,49,29.93,29.78,6,2,6,0.00
2013-9-24,53.4,47.5,40.4,49.5,45.7,40.1,100,94,79,29.87,29.74,6,1,6,0.00
2013-9-25,52.0,45.2,40.6,45.0,42.2,40.2,100,90,74,29.79,29.70,11,2,11,0.00
2013-9-26,53.3,46.3,39.1,46.0,42.9,37.5,98,88,75,30.00,29.79,15,3,15,0.00
2013-9-27,54.7,46.0,37.7,45.4,41.5,36.2,100,85,52,30.03,29.94,9,2,9,0.00
2013-9-28,65.0,55.4,45.3,48.7,46.5,44.1,100,75,47,29.94,29.56,20,5,20,0.00
2013-9-29,65.8,49.7,45.7,46.6,43.7,39.3,98,81,42,29.76,29.52,25,4,25,0.00
2013-9-30,58.5,50.7,40.0,48.1,41.1,35.8,97,71,46,29.91,29.48,18,2,18,0.00
2013-10-1,58.2,45.4,37.5,43.4,38.5,34.8,96,79,44,30.09,29.90,17,2,17,0.00
2013-10-2,50.4,39.6,29.2,40.7,36.0,28.3,99,88,64,30.09,29.89,5,1,5,0.00
2013-10-3,48.4,42.7,33.3,39.3,37.2,31.3,93,81,68,30.27,29.94,13,4,13,0.00
2013-10-4,60.4,42.1,29.7,41.8,33.8,28.2,97,75,37,30.37,30.27,12,2,12,0.00
2013-10-5,67.3,45.1,28.5,42.5,33.6,27.0,96,69,28,30.35,30.19,9,2,9,0.00
2013-10-6,71.8,53.4,35.5,40.0,32.3,27.2,75,49,23,30.21,29.91,17,4,17,0.00
2013-10-7,60.5,48.3,39.9,44.3,38.0,33.1,84,68,49,29.96,29.85,11,1,11,0.00
2013-10-8,48.1,43.6,39.3,41.1,38.7,36.3,99,83,65,29.95,29.85,8,1,8,0.00
2013-10-9,55.5,43.1,34.5,43.9,39.3,34.0,100,88,61,29.91,29.82,12,1,12,0.00
2013-10-10,56.5,44.1,36.5,42.8,38.5,35.9,99,83,52,29.93,29.79,9,1,9,0.00
2013-10-11,56.8,46.4,40.2,42.7,38.0,35.3,88,74,46,30.03,29.93,6,1,6,0.00
2013-10-12,51.7,42.9,36.2,44.7,39.6,34.1,99,89,70,30.00,29.91,7,1,7,0.00
2013-10-13,53.7,43.1,34.8,42.9,38.4,32.3,100,85,61,30.17,29.99,12,2,12,0.00
2013-10-14,56.3,39.8,28.0,40.1,32.8,26.8,97,78,43,30.26,30.17,12,2,12,0.00
2013-10-15,57.9,40.5,27.0,41.7,32.8,25.0,93,76,45,30.30,30.10,5,1,5,0.00
2013-10-16,61.3,45.5,35.0,41.6,35.7,30.9,92,71,39,30.10,30.01,6,1,6,0.00
2013-10-17,59.0,41.2,29.3,42.6,34.0,28.0,97,78,48,30.17,30.08,12,2,12,0.00
2013-10-18,58.9,40.4,27.5,43.6,33.9,25.9,96,79,53,30.23,30.11,4,1,4,0.00
2013-10-19,67.0,43.7,27.9,45.6,35.2,26.2,95,75,39,30.13,30.00,5,1,5,0.00
2013-10-20,65.8,46.6,31.7,44.3,37.4,29.5,93,73,43,30.10,30.04,7,2,7,0.00
2013-10-21,63.4,45.8,32.6,48.1,40.1,31.6,98,82,54,30.16,30.07,5,1,5,0.00
2013-10-22,67.3,46.8,32.9,50.8,41.7,32.2,100,84,54,30.15,30.02,3,1,3,0.00
2013-10-23,66.3,46.0,33.0,50.7,41.3,32.6,100,85,55,30.09,29.99,4,1,4,0.00
2013-10-24,66.4,45.4,31.7,51.2,40.3,31.2,100,84,56,30.08,29.99,3,0,3,0.00
2013-10-25,63.2,44.5,32.2,48.6,39.0,31.1,98,82,58,30.17,30.06,0,0,0,0.00
2013-10-26,64.5,44.4,31.4,48.7,38.7,30.4,98,82,55,30.22,30.00,0,0,0,0.00
2013-10-27,56.9,42.7,33.3,44.1,37.9,30.8,96,84,55,30.01,29.61,12,1,12,0.00
2013-10-28,49.7,42.4,33.7,41.1,33.2,25.0,93,71,48,29.74,29.56,18,3,18,0.00
2013-10-29,49.8,35.5,26.3,32.5,26.5,22.0,87,71,45,29.93,29.74,5,1,5,0.00
2013-10-30,52.2,36.6,23.3,34.4,27.9,21.1,93,73,43,30.04,29.92,7,2,7,0.00
2013-10-31,49.8,41.9,30.9,48.7,39.9,25.6,100,93,72,30.14,30.02,7,1,7,0.00
2013-11-1,55.6,44.9,35.2,45.7,40.9,34.3,100,87,58,30.20,29.93,10,2,10,0.00
2013-11-2,55.2,48.3,38.9,43.4,36.9,26.3,87,65,56,29.92,29.66,23,6,23,0.00
2013-11-3,42.2,36.3,31.8,32.7,29.7,26.6,96,77,63,29.95,29.84,9,2,9,0.00
2013-11-4,39.9,31.7,21.3,31.0,26.1,16.9,94,80,59,30.10,29.93,9,2,9,0.00
2013-11-5,36.3,31.8,23.4,33.6,28.8,18.0,99,89,74,30.16,30.07,9,1,9,0.00
2013-11-6,42.5,38.0,33.3,40.5,37.3,33.0,100,97,91,30.25,30.14,6,1,6,0.00
2013-11-7,53.4,44.6,37.4,45.8,40.3,32.5,100,86,68,30.14,29.75,23,5,23,0.00
2013-11-8,49.3,42.2,37.0,36.2,35.2,33.7,88,77,57,30.05,29.93,7,1,7,0.00
2013-11-9,53.3,42.3,28.5,38.9,33.8,26.7,96,74,50,30.08,29.98,14,3,14,0.00
2013-11-10,59.2,46.6,38.7,42.7,37.6,33.8,85,72,52,30.10,30.01,10,2,10,0.00
2013-11-11,58.2,41.2,30.3,44.4,36.1,28.9,96,83,59,30.22,30.10,5,2,5,0.00
2013-11-12,60.9,49.8,38.9,48.7,40.1,32.1,97,72,34,30.27,30.10,15,2,15,0.00
2013-11-13,53.4,43.5,30.6,44.7,38.3,28.6,98,83,58,30.31,30.16,7,1,7,0.00
2013-11-14,42.1,35.1,28.5,38.3,32.6,27.0,97,91,79,30.16,29.88,5,1,5,0.00
2013-11-15,44.6,38.4,34.0,35.1,31.8,28.6,96,78,54,29.88,29.44,6,2,6,0.00
2013-11-16,40.5,36.7,34.1,35.2,32.3,29.3,96,84,71,29.70,29.31,19,3,19,0.00
2013-11-17,46.4,41.2,36.2,36.0,32.6,28.5,89,72,55,29.90,29.70,12,3,12,0.00
2013-11-18,49.5,45.6,40.9,41.3,33.0,29.3,92,62,52,29.90,29.72,14,4,14,0.00
2013-11-19,51.2,46.5,40.4,43.4,41.1,38.8,99,82,69,29.73,29.65,14,4,14,0.00
2013-11-20,40.3,31.4,21.1,39.5,21.8,7.9,98,68,40,30.18,29.74,15,5,15,0.00
2013-11-21,36.8,23.5,14.1,20.1,14.1,8.4,83,68,47,30.48,30.18,5,2,5,0.00
2013-11-22,34.9,22.4,14.5,21.5,16.3,10.8,86,78,57,30.52,30.39,4,1,4,0.00
2013-11-23,38.2,24.5,16.4,25.0,18.8,12.9,88,79,58,30.40,30.18,4,1,4,0.00
2013-11-24,41.0,25.9,16.8,29.4,21.2,14.1,91,83,62,30.22,30.13,5,1,5,0.00
2013-11-25,44.7,30.7,22.0,33.3,25.8,19.1,92,82,64,30.29,30.21,4,1,4,0.00
2013-11-26,52.0,34.9,26.4,32.6,26.9,22.8,87,74,45,30.23,30.05,14,2,14,0.00
2013-11-27,50.0,35.3,27.0,33.5,27.9,23.3,88,75,50,30.06,29.95,5,2,5,0.00
2013-11-28,45.8,31.1,23.4,34.8,26.8,20.9,93,84,65,30.09,29.99,4,1,4,0.00
2013-11-29,47.2,34.4,22.0,37.8,29.9,20.0,94,84,63,30.16,30.08,5,1,5,0.00
2013-11-30,48.2,40.1,31.4,40.8,36.6,29.8,95,88,70,30.22,30.12,5,1,5,0.00
2013-12-1,53.7,45.2,38.7,47.3,43.7,37.0,100,94,76,30.12,29.75,13,3,13,0.00
2013-12-2,49.7,35.9,28.0,44.7,32.2,22.5,97,87,75,29.80,29.64,14,3,14,0.00
2013-12-3,27.9,21.9,15.0,24.2,18.2,11.3,93,86,74,29.98,29.79,15,3,15,0.00
2013-12-4,19.2,11.8,3.0,12.3,5.0,-2.6,81,74,61,30.12,29.97,7,2,7,0.00
2013-12-5,11.4,3.7,-3.9,4.7,-1.6,-9.3,82,78,73,30.11,30.02,4,1,4,0.00
2013-12-6,16.6,10.5,0.8,13.3,6.1,-3.9,89,82,76,30.02,29.81,4,1,4,0.00
2013-12-7,14.8,6.3,-6.5,12.1,-0.2,-13.7,89,74,65,30.14,29.80,18,5,18,0.00
2013-12-8,5.9,-3.0,-10.2,-3.3,-10.0,-16.8,76,71,65,30.35,30.13,4,1,4,0.00
2013-12-9,19.5,11.7,-3.8,10.5,3.9,-9.9,81,71,63,30.34,30.24,9,2,9,0.00
2013-12-10,22.5,19.6,15.0,17.4,12.2,5.4,81,73,63,30.29,30.24,6,1,6,0.00
2013-12-11,30.7,21.1,10.8,19.8,13.9,6.2,84,74,63,30.34,30.26,17,3,17,0.00
2013-12-12,36.1,27.1,18.4,22.5,17.8,12.4,88,68,53,30.26,30.12,17,3,17,0.00
2013-12-13,35.9,29.7,25.0,35.4,28.6,21.9,99,95,85,30.38,30.14,4,0,4,0.00
2013-12-14,38.4,33.0,29.1,32.7,30.3,26.4,99,90,79,30.42,30.33,8,2,8,0.00
2013-12-15,41.6,32.0,25.7,32.6,28.0,23.7,93,86,70,30.37,30.25,5,2,5,0.00
2013-12-16,40.3,28.9,22.3,31.4,24.9,20.1,94,85,69,30.39,30.32,5,2,5,0.00
2013-12-17,43.5,31.3,23.3,30.7,25.5,20.5,91,80,58,30.34,30.05,18,3,18,0.00
2013-12-18,38.5,33.6,29.1,31.6,28.7,24.8,91,82,69,30.05,29.84,9,1,9,0.00
2013-12-19,31.5,23.4,16.8,26.5,16.2,10.7,84,74,56,30.12,29.90,14,3,14,0.00
2013-12-20,27.2,22.1,15.9,23.6,18.0,11.1,95,85,58,30.04,29.70,11,1,11,0.00
2013-12-21,37.0,31.3,24.9,36.0,30.5,23.7,99,97,94,30.07,29.74,6,1,6,0.00
2013-12-22,40.7,37.0,34.4,38.2,36.1,33.6,99,96,90,30.26,30.06,6,2,6,0.00
2013-12-23,44.8,38.5,34.3,40.4,35.9,29.4,100,91,74,30.36,30.10,13,3,13,0.00
2013-12-24,39.2,31.0,22.4,30.9,26.5,18.8,93,84,69,30.47,30.36,6,2,6,0.00
2013-12-25,37.2,27.5,19.6,27.4,22.4,16.3,89,82,66,30.46,30.36,9,2,9,0.00
2013-12-26,39.4,29.0,22.8,28.8,23.7,20.0,90,81,64,30.39,30.30,7,2,7,0.00
2013-12-27,42.0,31.9,23.8,31.6,24.5,20.0,88,74,57,30.29,30.12,11,2,11,0.00
2013-12-28,41.5,31.2,23.1,32.7,26.6,19.6,93,83,68,30.38,30.16,4,2,4,0.00
2013-12-29,37.5,26.6,18.8,28.9,22.7,16.1,92,85,69,30.37,30.21,5,1,5,0.00
2013-12-30,34.9,30.5,23.6,33.1,27.7,20.9,99,90,73,30.26,30.16,4,1,4,0.00
2013-12-31,39.2,34.3,31.3,37.0,33.2,30.0,100,96,85,30.28,30.13,6,1,6,0.00
2014-1-1,36.5,32.8,29.5,35.3,31.8,29.3,100,96,89,30.36,30.27,8,1,8,0.00
2014-1-2,41.1,33.8,25.8,33.7,30.2,24.8,97,87,74,30.29,29.93,15,2,15,0.00